Flag Weather past 2 weeks in Kraków, Poland

Now
37 °F

Passing clouds.


Feels Like: 35 °F
Forecast: 32 / 41 °F
Wind: 3 mph from Northeast

Location: Krakow Airport

Current Time: Nov 21, 2014 at 7:06:09 PM

Latest Report: Nov 21, 2014 at 6:30 PM


Visibility: 4 mi

Pressure: 30.30 "Hg

Humidity: 93%

Dew point: 36 °F

Location of KrakówLocation

Historic Weather in Kraków — Graph

°F

Kraków temperature yesterday

Maximum temperature yesterday: 39 °F (at 12:00 AM)
Minimum temperature yesterday: 37 °F (at 6:00 PM)
Average temperature yesterday: 39 °F

Past Weeks' High & Low Weather Summary

 TemperatureHumidityPressure
High68 °F (Nov 10, 1:30 PM)100% (Nov 7, 10:30 PM)30.30 "Hg (Nov 7, 10:30 PM)
Low37 °F (Nov 20, 6:00 PM)49% (Nov 10, 1:30 PM)29.77 "Hg (Nov 16, 11:00 AM)
Average46 °F94%29.97 "Hg
* Reported Nov 6 6:00 PM — Nov 21 6:00 PM, Kraków, Weather by CustomWeather, © 2014

Note: Actual official high and low records may vary slightly from our data, if they occured in-between our weather recording intervals... More about our weather records

Advertising

Kraków weather history for previous 24 hours

 ConditionsComfort  
Time TempWeatherWind HumidityBarometerVisibility
6:00 PM
Nov 21
37 °FPassing clouds.5 mph93%30.30 "Hg4 mi
5:30 PM37 °FPassing clouds.2 mph93%30.30 "Hg4 mi
5:00 PM37 °FPassing clouds.1 mph93%30.30 "Hg4 mi
4:30 PM37 °FMostly cloudy.1 mph93%30.27 "Hg4 mi
4:00 PM37 °FPassing clouds.2 mph93%30.27 "Hg4 mi
3:30 PM37 °FBroken clouds.2 mph93%30.30 "Hg4 mi
3:00 PM37 °FPartly sunny.2 mph93%30.30 "Hg4 mi
2:30 PM37 °FBroken clouds.2 mph93%30.30 "Hg4 mi
2:00 PM37 °FBroken clouds.5 mph93%30.30 "Hg4 mi
1:30 PM37 °FBroken clouds.3 mph93%30.30 "Hg4 mi
1:00 PM37 °FPartly sunny.5 mph93%30.30 "Hg5 mi
12:30 PM37 °FPartly sunny.6 mph93%30.30 "Hg5 mi
12:00 PM37 °FPartly sunny.6 mph93%30.30 "Hg5 mi
11:30 AM37 °FPartly sunny.2 mph93%30.30 "Hg5 mi
11:00 AM37 °FBroken clouds.2 mph93%30.30 "Hg4 mi
10:30 AM39 °FBroken clouds.1 mph93%30.30 "Hg5 mi
10:00 AM37 °FBroken clouds.No wind93%30.30 "Hg5 mi
9:30 AM37 °FFog.2 mph93%30.30 "Hg3 mi
9:00 AM37 °FFog.1 mph100%30.30 "Hg3 mi
8:30 AM37 °FDrizzle. Fog.1 mph93%30.27 "Hg2 mi
8:00 AM37 °FDrizzle. Fog.2 mph93%30.27 "Hg1 mi
7:30 AM37 °FDrizzle. Fog.2 mph93%30.27 "Hg2 mi
7:00 AM37 °FDrizzle. Fog.2 mph93%30.27 "Hg2 mi
6:30 AM37 °FPartly cloudy.3 mph93%30.27 "Hg4 mi
6:00 AM37 °FPartly cloudy.3 mph93%30.27 "Hg4 mi
5:30 AM37 °FPartly cloudy.1 mph93%30.27 "HgN/A
5:00 AM37 °FPartly cloudy.1 mph93%30.27 "HgN/A
4:30 AM37 °FPartly cloudy.1 mph100%30.27 "Hg4 mi
4:00 AM37 °FPartly cloudy.2 mph100%30.27 "Hg4 mi
3:30 AM37 °FDrizzle. Fog.1 mph100%30.27 "Hg2 mi
3:00 AM37 °FDrizzle. Fog.1 mph100%30.27 "Hg2 mi
2:30 AM37 °FDrizzle. Fog.1 mph100%30.27 "Hg2 mi
2:00 AM37 °FDrizzle. Fog.1 mph100%30.27 "Hg2 mi
1:30 AM37 °FDrizzle. Fog.No wind100%30.27 "Hg2 mi
1:00 AM37 °FDrizzle. Fog.1 mph100%30.27 "Hg2 mi
12:30 AM37 °FDrizzle. Fog.2 mph100%30.27 "Hg1 mi
12:00 AM37 °FDrizzle. Fog.5 mph100%30.27 "Hg1 mi
11:30 PM
Nov 20
37 °FDrizzle. Fog.3 mph100%30.27 "Hg2 mi
11:00 PM37 °FDrizzle. Fog.1 mph100%30.27 "Hg2 mi
10:30 PM37 °FDrizzle. Fog.1 mph100%30.27 "Hg2 mi
10:00 PM37 °FDrizzle. Fog.3 mph100%30.27 "Hg2 mi
9:30 PM37 °FPassing clouds.2 mph100%30.27 "Hg4 mi
9:00 PM37 °FLight rain. Passing clouds.1 mph100%30.27 "Hg4 mi
8:30 PM37 °FDrizzle. Fog.2 mph100%30.27 "Hg3 mi
8:00 PM37 °FFog.2 mph100%30.27 "Hg2 mi
7:30 PM37 °FFog.2 mph100%30.27 "Hg2 mi
7:00 PM39 °FDrizzle. Fog.5 mph93%30.27 "Hg3 mi
Weather by CustomWeather, © 2014

See weather overviewHow to use our weather pages